www.pogodaiklimat.ru

Погода и климат >> Архив погоды >> Малайзия >> Penang


ПОГОДА в Penang

  • Прогноз погоды в Penang
  • Монитор погоды в Penang
  • Климат города

АРХИВ ПОГОДЫ в Penang

Время (UTC), дата Ветер
(напр.,м/с)
 
Видим.   Явления Облачность Т
(С)
Тd
(С)
f
(%)
Тe
(С)
Тes
(С)
Комфортность P
(гПа)
Po
(гПа)
Тmin
(С)
Tmax
(С)
R
(мм)
R24
(мм)
S
(см)
03 11.10 СВ 3 8000 м мгла 9/3 600 м
[Cu med, cong Ac lent Ci sp]
+30.9 +24.0 67 +43 +48 опасность
перегрева
1012.3 1011.9
06 11.10 В 3 10 км мгла 9/3 600 м
[Cu med, cong Ac trans Ci sp]
+32.5 +23.9 61 +44 +52 опасность
перегрева
1009.7 1009.3
09 11.10 В 2 9000 м в посл. час ливневой дождь 9/5 500 м
[Cb cap Ac und Ci sp]
+30.0 +24.7 73 +43 +45 опасность
перегрева
1008.2 1007.8
12 11.10 З 1 9000 м в посл. час гроза {ливн. осадки} 9/3 750 м
[Sc Ac trans Ci sp]
+27.0 +24.7 87 +38 +38 очень
душно
1009.9 1009.5 +32.5 0.0
15 11.10 З 1 9000 м мгла 9/3 750 м
[Sc Ac lent Ci sp]
+27.0 +25.2 90 +39 +39 очень
душно
1012.6 1012.2
18 11.10 СВ 1 9000 м мгла 9/3 750 м
[Sc Ac trans Ci fib]
+25.7 +23.7 89 +35 +35 очень
душно
1011.8 1011.4
21 11.10 штиль 0 8000 м мгла 9/3 750 м
[Sc Ac trans Ci sp]
+25.6 +24.2 92 +35 +35 очень
душно
1010.0 1009.6
00 12.10 С 2 8000 м мгла 9/4 500 м
[Cb cap Ac trans Ci fib]
+26.2 +24.5 90 +37 +37 очень
душно
1011.4 1011.0 +25.3 0.0
03 12.10 В 3 8000 м мгла 9/5 600 м
[Cu Sc Ac und Ci sp]
+28.3 +24.7 81 +40 +44 очень
душно
1014.0 1013.6
06 12.10 В 2 7000 м гроза, ливневой дождь 9/6 300 м
[Cb cap Ac trans Cs]
+28.3 +25.8 86 +42 +47 опасность
перегрева
1011.7 1011.3 0.6
09 12.10 ЮЗ 3 9000 м в посл. час дождь {гроза} 9/3 500 м
[Cb cap Ac trans Ci sp]
+27.0 +24.0 84 +37 +40 очень
душно
1010.6 1010.2
12 12.10 ЮЗ 3 9000 м слабый дождь {гроза} 9/5 360 м
[Sc Ac und Cs]
+25.9 +23.9 89 +36 +36 очень
душно
1012.3 1011.9 +29.3 0.8
15 12.10 ЮЗ 1 8000 м мгла {дождь} 9/3 750 м
[Sc Ac lent Ci sp]
+26.0 +24.2 90 +36 +36 очень
душно
1013.8 1013.4
18 12.10 штиль 0 9000 м в посл. час дождь 9/3 750 м
[Sc Ac und Ci sp]
+25.6 +24.8 95 +36 +36 очень
душно
1012.5 1012.1 0.4
21 12.10 З 2 8000 м слабый дождь 9/4 360 м
[Sc Ac lent Cs]
+24.8 +23.7 94 +34 +34 очень
душно
1011.4 1011.0
00 13.10 Ю 1 9000 м дымка {дождь} 9/3 600 м
[Cu Sc Ac trans Ci sp]
+25.0 +24.6 98 +35 +35 очень
душно
1012.7 1012.3 +24.5 8
03 13.10 Ю 1 9000 м мгла 9/5 600 м
[Cu Sc Ac trans Ci sp]
+29.7 +25.2 77 +43 +48 опасность
перегрева
1014.4 1014.0
06 13.10 З 2 10 км в посл. час ливневой дождь 9/4 600 м
[Cu med, cong Ac trans Ci sp]
+29.9 +23.9 70 +41 +48 опасность
перегрева
1011.6 1011.2 0.0
09 13.10 З 3 10 км мгла 9/3 500 м
[Cb cap Ac trans Ci sp]
+30.4 +24.0 69 +42 +44 опасность
перегрева
1009.6 1009.2
12 13.10 штиль 0 8000 м слабый ливневой дождь, в посл. час гроза 9/3 300 м
[Sc Ac trans Cs]
+26.8 +25.5 93 +39 +39 очень
душно
1012.1 1011.7 +31.9 2
15 13.10 СВ 1 9000 м в посл. час дождь {гроза} 9/5 360 м
[Cb cap Ac lent Cs]
+25.3 +24.5 95 +35 +35 очень
душно
1013.7 1013.3
18 13.10 С 1 9000 м дымка {гроза, дождь} 9/3 750 м
[Sc Ac und Ci sp]
+25.3 +24.4 95 +35 +35 очень
душно
1012.8 1012.4 2
21 13.10 штиль 0 8000 м дымка 9/3 750 м
[Sc Ac lent Ci sp]
+25.4 +24.6 95 +36 +36 очень
душно
1011.7 1011.3
00 14.10 СЗ 1 9000 м в посл. час дождь 9/5 600 м
[Cu Sc Ac trans Ci sp]
+25.7 +24.1 91 +36 +36 очень
душно
1012.7 1012.3 +25.0 4
03 14.10 ЮЗ 3 9000 м мгла 9/4 600 м
[Cu Sc Ac trans Ci sp]
+28.0 +24.9 83 +40 +44 очень
душно
1014.3 1013.9
06 14.10 ЮВ 3 10 км мгла 9/3 600 м
[Cu med, cong Ac lent Ci sp]
+30.4 +24.7 72 +43 +51 опасность
перегрева
1011.5 1011.1
09 14.10 ЮЗ 4 10 км мгла 9/3 600 м
[Cu med, cong Ac lent Ci sp]
+28.9 +24.1 75 +40 +42 очень
душно
1009.6 1009.2
12 14.10 З 1 9000 м мгла 9/3 750 м
[Sc Ac trans Ci fib]
+27.8 +24.3 81 +39 +39 очень
душно
1011.3 1010.9 +31.2
15 14.10 штиль 0 10 км мгла 9/3 750 м
[Sc Ac trans Ci sp]
+27.4 +24.8 86 +39 +39 очень
душно
1012.8 1012.4
18 14.10 З 1 9000 м мгла 9/3 750 м
[Sc Ac lent Ci sp]
+27.0 +24.3 85 +38 +38 очень
душно
1012.0 1011.6
21 14.10 ЮЗ 2 8000 м гроза, ливневой дождь 9/4 300 м
[Cb cap Ac trans Cs]
+24.5 +23.8 96 +33 +33 очень
душно
1011.1 1010.7
00 15.10 штиль 0 10 км дымка {гроза, дождь} 9/3 500 м
[Cb cap Ac trans Ci sp]
+25.9 +25.0 95 +37 +37 очень
душно
1012.3 1011.9 +24.3 37
03 15.10 ЮВ 2 9000 м мгла 9/4 500 м
[Cb cap Ac lent Ci sp]
+30.1 +25.2 75 +44 +48 опасность
перегрева
1013.2 1012.8
06 15.10 З 4 10 км в посл. час ливневой дождь 9/3 500 м
[Cb cap Ac trans Ci sp]
+30.1 +23.2 67 +41 +46 опасность
перегрева
1010.9 1010.5 0.0
09 15.10 З 2 10 км мгла {гроза} 9/4 600 м
[Cu Sc Ac trans Ci sp]
+28.6 +24.0 76 +40 +42 очень
душно
1009.1 1008.7
12 15.10 ЮВ 3 8000 м зарница 9/5 500 м
[Cb cap Ac und Ci sp]
+26.8 +24.7 88 +38 +38 очень
душно
1011.4 1011.0 +31.2
15 15.10 ЮВ 2 7000 м слабый дождь 9/4 300 м
[Sc Ac lent Cs]
+25.8 +24.9 95 +37 +37 очень
душно
1013.8 1013.4
18 15.10 СВ 3 7000 м слабый дождь 9/4 360 м
[Sc Ac trans Cs]
+25.1 +23.8 93 +34 +34 очень
душно
1011.0 1010.6 1
21 15.10 СВ 1 8000 м дымка {дождь} 9/4 750 м
[Sc Ac lent Ci sp]
+25.0 +24.2 95 +34 +34 очень
душно
1011.3 1010.9
00 16.10 штиль 0 8000 м дымка {дождь} 9/5 500 м
[Cb cap Ac trans Ci sp]
+25.4 +24.6 95 +36 +36 очень
душно
1012.8 1012.4 +24.8 2
03 16.10 ЮЗ 3 10 км мгла 9/3 600 м
[Cu med, cong Ac trans Ci sp]
+29.7 +24.1 72 +41 +46 опасность
перегрева
1013.8 1013.4
06 16.10 ЮЗ 5 10 км мгла 9/3 600 м
[Cu med, cong Ac trans Ci fib]
+31.5 +23.9 64 +43 +48 опасность
перегрева
1011.1 1010.7
09 16.10 З 2 10 км мгла 9/3 500 м
[Cb cap Ac trans Ci sp]
+31.0 +23.0 62 +41 +44 опасность
перегрева
1008.8 1008.4
12 16.10 З 1 9000 м мгла 9/3 750 м
[Sc Ac lent Ci sp]
+28.2 +24.0 78 +39 +39 очень
душно
1011.5 1011.1 +32.4
15 16.10 С 2 9000 м мгла 9/3 750 м
[Sc Ac trans Ci sp]
+27.8 +24.0 80 +39 +39 очень
душно
1013.3 1012.9
18 16.10 СВ 2 9000 м гроза без осадков 9/4 500 м
[Cb cap Ac lent Ci sp]
+26.0 +24.3 90 +36 +36 очень
душно
1012.1 1011.7
21 16.10 СВ 2 9000 м мгла {гроза} 9/3 750 м
[Sc Ac trans Ci sp]
+25.5 +24.2 93 +35 +35 очень
душно
1010.8 1010.4
00 17.10 В 1 9000 м мгла {гроза} 9/3 600 м
[Cu Sc Ac und Ci sp]
+26.6 +24.5 88 +37 +38 очень
душно
1012.5 1012.1 +25.5
03 17.10 Ю 5 9000 м осадки на расстоянии 9/5 600 м
[Cu Sc Ac trans Ci sp]
+29.4 +23.9 72 +40 +43 очень
душно
1014.0 1013.6
06 17.10 ЮЗ 5 10 км мгла 9/3 600 м
[Cu hum Ac trans Ci sp]
+30.1 +24.5 72 +42 +47 опасность
перегрева
1011.1 1010.7
09 17.10 З 2 10 км мгла 9/3 500 м
[Cb cap Ac trans Ci sp]
+30.2 +23.6 68 +41 +44 опасность
перегрева
1008.7 1008.3
12 17.10 СЗ 2 10 км мгла 9/3 750 м
[Sc Ac trans Ci sp]
+27.9 +23.8 78 +38 +38 очень
душно
1010.0 1009.6 +31.0
15 17.10 С 1 10 км мгла 9/3 750 м
[Sc Ac trans Ci sp]
+26.6 +24.0 86 +37 +37 очень
душно
1012.1 1011.7
18 17.10 В 1 9000 м мгла 9/3 750 м
[Sc Ac trans Ci fib]
+25.9 +23.1 85 +35 +35 очень
душно
1010.9 1010.5
21 17.10 СВ 2 9000 м мгла 9/3 750 м
[Sc Ac trans Ci sp]
+25.4 +23.7 90 +35 +35 очень
душно
1009.4 1009.0

 

Местоположение метеостанции Penang (Малайзия): широта 5.30 долгота 100.26 высота над уровнем моря 4 м.

В архиве по умолчанию представлена погода в Penang за последнюю неделю. Архивные данные за месяц целиком и за предыдущие месяцы, начиная с января 2011 года, Вы можете получить, выбрав интересующий диапазон дат из раскрывающегося списка и нажав кнопку "Ввод!".


*Определитесь, кто Вы:
робот инопланетянин человек

Внимание! Время в таблицах - всемирное. Для получения местного времени необходимо прибавить поправку, которая в Penang равна 7 ч.

Смотрите также архив погоды в соседних городах и на ближайших метеорологических станциях:

Погода в Butterworth Air Base (Малайзия) (23 км)
Погода в Alor Star (Малайзия) (101 км)
Погода в Ipoh (Малайзия) (124 км)
Погода в Langkawi (Малайзия) (129 км)
Погода в Sitiawan (Малайзия) (130 км)
Погода в Satun (Таиланд) (151 км)
Погода в Kho Hong Agromet (Таиланд) (151 км)
Погода в Cameron Highlands (Малайзия) (154 км)
Погода в Sadao (Таиланд) (168 км)
Погода в Yala Agromet (Таиланд) (176 км)

Пояснения к столбцам:

Ветер - указаны скорость ветра в м/с - средняя за 10 мин, порывы в срок и между сроками (в фигурных скобках) и направление, откуда дует ветер: С - северный, СВ - северо-восточный, В - восточный, ЮВ - юго-восточный, Ю - южный, ЮЗ - юго-западный, З - западный, СЗ - северо-западный.
Видимость - горизонтальная дальность видимости в метрах или километрах. При видимости от 1 до 10 км при отсутствии осадков обычно наблюдается дымка, при ухудшении видимости до 1 км и менее - туман. В сухую погоду видимость может ухудшаться дымом, пылью или мглою.
Явления - указаны атмосферные явления, наблюдавшиеся в срок или в последний час перед сроком; фигурными скобками обозначены явления, наблюдавшиеся между сроками (за 1-3 часа до срока); квадратными скобками обозначены град или гололедные отложения с указанием их диаметра в мм.
Облачность - указаны через наклонную черту общая и нижняя облачность в баллах и высота нижней границы облаков в метрах; квадратными скобками обозначены формы облаков: Ci - перистые, Cs - перисто-слоистые, Cc - перисто-кучевые, Ac - высококучевые, As - высокослоистые, Sc - слоисто-кучевые, Ns - слоисто-дождевые, Cu - кучевые, Cb - кучево-дождевые. Подробнее классификацию облаков см. в Атласе облаков (PDF).
T - Температура воздуха - температура, измеренная на высоте 2 м над землей.
Td - Температура точки росы - температура, при понижении до которой содержащийся в воздухе водяной пар достигнет насыщения.
f - Относительная влажность воздуха - влажноcть воздуха, измеренная на высоте 2 м над землей.
Te - Эффективная температура - температура, которую ощущает одетый по сезону человек в тени. Характеристика душности погоды. При расчете учитывается влияние влажности воздуха и скорости ветра на теплоощущения человека.
Tes - Эффективная температура на солнце - температура, которую ощущает человек, с поправкой на солнечный нагрев. Характеристика знойности погоды. Зависит от высоты солнца над горизонтом, облачности и скорости ветра. Ночью, в пасмурную погоду, а также при ветре 12 м/с и более поправка равна нулю.
P - Атмосферное давление - приведенное к уровню моря атмосферное давление.
Po - Атмосферное давление - измеренное на уровне метеостанции атмосферное давление.
Tmin - Минимальная температура - минимум температуры воздуха на высоте 2 м над землей.
Tmax - Максимальная температура - максимум температуры воздуха на высоте 2 м над землей.
R - Количество осадков - Количество выпавших осадков за период времени, мм. При наведении курсора мыши на число - период времени, за который выпало указанное количество осадков.
R24 - Количество осадков - Количество выпавших осадков за 24 часа, мм.
S - Снежный покров - Высота снежного покрова, см. При наведении курсора мыши на число - состояние снежного покрова и степень покрытия местности в баллах.